Weather History for Denver, CO

Change the Weather History Date:

Saturday, February 23, 2013

  Actual Average Record
Temperature  
Mean Temperature 32 °F 34 °F  
Max Temperature 45 °F 48 °F 72 °F (2002)
Min Temperature 18 °F 21 °F -4 °F (1899)
Degree Days  
Heating Degree Days 33 31  
Month to date heating degree days 758 759  
Since 1 July heating degree days 4058 4290  
Cooling Degree Days 0 0  
Month to date cooling degree days 0 0  
Year to date cooling degree days 0 0  
Moisture  
Dew Point 14 °F    
Average Humidity 49    
Maximum Humidity 69    
Minimum Humidity 29    
Precipitation  
Precipitation T in 0.01 in 0.22 in (1895)
Month to date precipitation 0.24 0.29  
Year to date precipitation 0.55 0.70  
Snow  
Snow T in - - ()
Month to date snowfall 4  
Since 1 July snowfall 21  
Snow Depth 1.00 in    
Sea Level Pressure  
Sea Level Pressure 29.71 in    
Wind  
Wind Speed 11 mph (South)    
Max Wind Speed 23 mph    
Max Gust Speed 26 mph    
Visibility 9 miles    
Events Snow    
T = Trace of Precipitation, MM = Missing Value Source: NWS Daily Summary

Daily Weather History Graph

Daily Weather History Graph

Search for Another Location

Airport:

Trip Planner

Search our weather history database for the weather conditions in past years. The results will help you decide how hot, cold, wet, or windy it might be!

Date:

Astronomy

Feb. 23, 2013 Rise Set
Actual Time 6:40 AM MST 5:44 PM MST
Civil Twilight 6:12 AM MST 6:11 PM MST
Nautical Twilight 5:41 AM MST 6:43 PM MST
Astronomical Twilight 5:10 AM MST 7:14 PM MST
Moon 3:57 PM MST (2/23) 5:03 AM MST (2/23)
Length of Visible Light 11h 58m
Length of Day
11h 04m
Waxing Gibbous, 95% of the Moon is Illuminated
Feb 23
Waxing Gibbous
Feb 25
Full
Mar 4
Last Quarter
Mar 11
New
Mar 19
First Quarter

Hourly Weather History & Observations

Time (MST) Temp. Windchill Dew Point Humidity Pressure Visibility Wind Dir Wind Speed Gust Speed Precip Events Conditions
12:53 AM 19.9 °F 5.7 °F 10.9 °F 68% 29.87 in 8.0 mi SSW 16.1 mph - N/A   Clear
1:53 AM 19.9 °F 7.3 °F 8.1 °F 60% 29.84 in 10.0 mi SSW 12.7 mph - N/A   Scattered Clouds
2:53 AM 19.9 °F 6.2 °F 6.1 °F 55% 29.81 in 10.0 mi SSW 15.0 mph - N/A   Scattered Clouds
3:53 AM 21.0 °F 7.1 °F 3.9 °F 48% 29.79 in 10.0 mi SSW 16.1 mph - N/A   Scattered Clouds
4:53 AM 21.2 °F 8.9 °F 3.2 °F 46% 29.71 in 10.0 mi SSW 12.7 mph - N/A   Scattered Clouds
5:53 AM 21.0 °F 9.9 °F 3.9 °F 48% 29.80 in 10.0 mi SSW 10.4 mph - N/A   Mostly Cloudy
6:53 AM 19.9 °F 10.1 °F 6.1 °F 55% 29.81 in 10.0 mi South 8.1 mph - N/A   Mostly Cloudy
7:53 AM 21.9 °F 11.7 °F 6.1 °F 51% 29.82 in 10.0 mi South 9.2 mph - N/A   Mostly Cloudy
8:53 AM 28.0 °F 18.6 °F 9.0 °F 45% 29.79 in 10.0 mi SW 10.4 mph - N/A   Mostly Cloudy
9:53 AM 33.1 °F 27.7 °F 12.9 °F 43% 29.75 in 10.0 mi South 5.8 mph - N/A   Mostly Cloudy
10:53 AM 37.9 °F 32.1 °F 15.1 °F 39% 29.73 in 10.0 mi South 8.1 mph - N/A   Mostly Cloudy
11:53 AM 39.9 °F 35.8 °F 10.9 °F 31% 29.69 in 10.0 mi South 5.8 mph - N/A   Mostly Cloudy
12:53 PM 42.1 °F 39.2 °F 12.0 °F 29% 29.65 in 10.0 mi South 4.6 mph - N/A   Mostly Cloudy
1:53 PM 44.1 °F 39.0 °F 15.1 °F 31% 29.61 in 10.0 mi ESE 9.2 mph - N/A   Mostly Cloudy
2:53 PM 44.1 °F 36.8 °F 16.0 °F 32% 29.58 in 10.0 mi ESE 16.1 mph - N/A   Mostly Cloudy
3:53 PM 44.1 °F 37.7 °F 17.1 °F 34% 29.58 in 10.0 mi ESE 12.7 mph - N/A   Mostly Cloudy
4:53 PM 42.1 °F 35.2 °F 15.1 °F 34% 29.59 in 10.0 mi ESE 12.7 mph - N/A   Mostly Cloudy
5:53 PM 33.1 °F 26.9 °F 19.9 °F 59% 29.62 in 10.0 mi East 6.9 mph - N/A   Mostly Cloudy
6:53 PM 30.0 °F 24.1 °F 21.0 °F 69% 29.65 in 10.0 mi NNE 5.8 mph - N/A   Mostly Cloudy
7:53 PM 30.9 °F 23.5 °F 21.0 °F 67% 29.67 in 10.0 mi NNW 8.1 mph - N/A   Mostly Cloudy
8:53 PM 28.9 °F 17.3 °F 21.9 °F 75% 29.65 in 7.0 mi North 16.1 mph - 0.00 in Snow Light Snow
9:53 PM 30.0 °F 19.5 °F 23.0 °F 75% 29.66 in 10.0 mi NNW 13.8 mph - 0.00 in   Overcast
10:53 PM 30.0 °F 17.9 °F 21.0 °F 69% 29.67 in 10.0 mi NNW 18.4 mph - N/A   Overcast
11:31 PM 28.4 °F 15.4 °F 24.8 °F 86% 29.66 in 2.5 mi North 19.6 mph - 0.00 in Snow Light Snow
11:46 PM 28.4 °F 15.8 °F 24.8 °F 86% 29.66 in 2.5 mi North 18.4 mph - 0.00 in Snow Light Snow
11:53 PM 28.0 °F 14.9 °F 24.1 °F 85% 29.67 in 4.0 mi North 19.6 mph - 0.00 in Snow Light Snow